| time (UTC) | temp C | wind direction | speed KPH | gust KPH | rain 1hr cm | rain 24hr cm | rain mn cm | humidity % | barometer mb |
| 20260903183406 | 14 | 342 | 25.7 | 51.5 | 0.00 | 0.00 | 0.00 | 91 | 1004.7 |
| 20260903182906 | 14 | 342 | 27.4 | 45.1 | 0.00 | 0.00 | 0.00 | 91 | 1004.7 |
| 20260903182405 | 14 | 346 | 24.1 | 40.2 | 0.00 | 0.00 | 0.00 | 91 | 1004.9 |
| 20260903181905 | 14 | 353 | 19.3 | 37.0 | 0.00 | 0.00 | 0.00 | 91 | 1005.1 |
| 20260903181406 | 14 | 333 | 25.7 | 46.7 | 0.00 | 0.00 | 0.00 | 91 | 1005.4 |
| 20260903180905 | 14 | 340 | 22.5 | 41.8 | 0.00 | 0.00 | 0.00 | 91 | 1005.4 |
| 20260903180405 | 14 | 348 | 16.1 | 46.7 | 0.00 | 0.00 | 0.00 | 91 | 1005.5 |
| 20260903175906 | 14 | 346 | 22.5 | 45.1 | 0.00 | 0.00 | 0.00 | 91 | 1005.7 |
| 20260903174406 | 14 | 347 | 27.4 | 56.3 | 0.00 | 0.00 | 0.00 | 91 | 1005.8 |
| 20260903173405 | 14 | 358 | 20.9 | 45.1 | 0.00 | 0.00 | 0.00 | 91 | 1005.7 |
| 20260903172906 | 14 | 349 | 24.1 | 48.3 | 0.00 | 0.00 | 0.00 | 91 | 1005.6 |
| 20260903172405 | 14 | 329 | 29.0 | 49.9 | 0.00 | 0.00 | 0.00 | 91 | 1005.6 |
| 20260903171906 | 14 | 333 | 29.0 | 51.5 | 0.00 | 0.00 | 0.00 | 91 | 1005.7 |
| 20260903171405 | 14 | 336 | 33.8 | 59.5 | 0.00 | 0.00 | 0.00 | 91 | 1005.7 |
| 20260903170906 | 14 | 356 | 27.4 | 41.8 | 0.00 | 0.00 | 0.00 | 91 | 1005.9 |
| 20260903170406 | 14 | 338 | 22.5 | 51.5 | 0.00 | 0.00 | 0.00 | 91 | 1006.1 |
| 20260903165905 | 14 | 348 | 29.0 | 46.7 | 0.00 | 0.00 | 0.00 | 91 | 1006.3 |
| 20260903165406 | 14 | 334 | 27.4 | 53.1 | 0.00 | 0.00 | 0.00 | 91 | 1006.2 |
| 20260903164905 | 14 | 345 | 25.7 | 49.9 | 0.00 | 0.00 | 0.00 | 91 | 1006.2 |
| 20260903164405 | 14 | 339 | 27.4 | 49.9 | 0.00 | 0.00 | 0.00 | 91 | 1006.2 |
| 20260903163906 | 14 | 353 | 25.7 | 51.5 | 0.00 | 0.00 | 0.00 | 91 | 1006.1 |
| 20260903163406 | 14 | 334 | 24.1 | 46.7 | 0.00 | 0.00 | 0.00 | 91 | 1006.1 |
| 20260903162906 | 14 | 356 | 29.0 | 53.1 | 0.00 | 0.00 | 0.00 | 91 | 1006.1 |
| 20260903162406 | 14 | 342 | 29.0 | 53.1 | 0.00 | 0.00 | 0.00 | 91 | 1006.1 |
| 20260903160905 | 14 | 340 | 27.4 | 51.5 | 0.00 | 0.00 | 0.00 | 91 | 1006.3 |
| 20260903160405 | 14 | 346 | 27.4 | 49.9 | 0.00 | 0.00 | 0.00 | 91 | 1006.5 |
| 20260903155406 | 14 | 334 | 27.4 | 41.8 | 0.00 | 0.00 | 0.00 | 91 | 1006.8 |
| 20260903154905 | 14 | 345 | 27.4 | 49.9 | 0.00 | 0.00 | 0.00 | 91 | 1006.8 |
| 20260903154406 | 14 | 350 | 27.4 | 41.8 | 0.00 | 0.00 | 0.00 | 91 | 1007.0 |
| 20260903153905 | 14 | 345 | 27.4 | 53.1 | 0.00 | 0.00 | 0.00 | 91 | 1007.2 |
| 20260903153406 | 14 | 347 | 22.5 | 35.4 | 0.00 | 0.00 | 0.00 | 91 | 1007.3 |
| 20260903152905 | 14 | 347 | 22.5 | 48.3 | 0.00 | 0.00 | 0.00 | 91 | 1007.4 |
| 20260903152405 | 14 | 342 | 24.1 | 41.8 | 0.00 | 0.00 | 0.00 | 91 | 1007.5 |
| 20260903151906 | 14 | 346 | 25.7 | 40.2 | 0.00 | 0.00 | 0.00 | 91 | 1007.6 |
| 20260903151405 | 14 | 336 | 19.3 | 38.6 | 0.00 | 0.00 | 0.00 | 91 | 1007.7 |
| 20260903150406 | 14 | 331 | 19.3 | 37.0 | 0.00 | 0.00 | 0.00 | 91 | 1008.0 |
| 20260903145905 | 14 | 342 | 22.5 | 35.4 | 0.00 | 0.00 | 0.00 | 91 | 1008.2 |
| 20260903144905 | 14 | 346 | 22.5 | 41.8 | 0.00 | 0.00 | 0.00 | 91 | 1008.3 |
| 20260903144406 | 14 | 336 | 19.3 | 37.0 | 0.00 | 0.00 | 0.00 | 91 | 1008.4 |
| 20260903143908 | 14 | 351 | 20.9 | 33.8 | 0.00 | 0.00 | 0.00 | 91 | 1008.6 |
| 20260903143405 | 14 | 333 | 17.7 | 40.2 | 0.00 | 0.00 | 0.00 | 91 | 1008.7 |
| 20260903142905 | 14 | 338 | 22.5 | 46.7 | 0.00 | 0.00 | 0.00 | 91 | 1008.8 |
| 20260903142405 | 14 | 342 | 20.9 | 37.0 | 0.00 | 0.00 | 0.00 | 91 | 1008.9 |
| 20260903141906 | 14 | 344 | 25.7 | 38.6 | 0.00 | 0.00 | 0.00 | 91 | 1009.0 |
| 20260903141405 | 14 | 350 | 22.5 | 45.1 | 0.00 | 0.00 | 0.00 | 91 | 1009.1 |
| 20260903140906 | 14 | 344 | 19.3 | 38.6 | 0.00 | 0.00 | 0.00 | 91 | 1009.2 |
| 20260903135905 | 14 | 343 | 19.3 | 37.0 | 0.00 | 0.00 | 0.00 | 91 | 1009.4 |
| 20260903134405 | 14 | 347 | 17.7 | 38.6 | 0.00 | 0.00 | 0.00 | 91 | 1009.4 |
| 20260903133906 | 14 | 353 | 19.3 | 40.2 | 0.00 | 0.00 | 0.00 | 91 | 1009.5 |
| 20260903133406 | 14 | 345 | 22.5 | 41.8 | 0.00 | 0.00 | 0.00 | 91 | 1009.5 |
| 20260903132905 | 14 | 350 | 25.7 | 41.8 | 0.00 | 0.00 | 0.00 | 91 | 1009.3 |
| 20260903131905 | 14 | 331 | 16.1 | 49.9 | 0.00 | 0.00 | 0.00 | 91 | 1009.4 |
| 20260903131406 | 14 | 332 | 20.9 | 38.6 | 0.00 | 0.00 | 0.00 | 91 | 1009.5 |
| 20260903130906 | 14 | 338 | 19.3 | 35.4 | 0.00 | 0.00 | 0.00 | 91 | 1009.6 |
| 20260903130405 | 14 | 344 | 16.1 | 32.2 | 0.00 | 0.00 | 0.00 | 91 | 1009.6 |
| 20260903125906 | 14 | 350 | 16.1 | 32.2 | 0.00 | 0.00 | 0.00 | 91 | 1009.5 |
| 20260903124405 | 14 | 2 | 20.9 | 35.4 | 0.00 | 0.00 | 0.00 | 91 | 1009.6 |
| 20260903123906 | 14 | 355 | 22.5 | 46.7 | 0.00 | 0.00 | 0.00 | 91 | 1009.6 |
| 20260903123406 | 14 | 343 | 24.1 | 37.0 | 0.00 | 0.00 | 0.00 | 91 | 1009.7 |
| 20260903121910 | 14 | 349 | 17.7 | 33.8 | 0.00 | 0.00 | 0.00 | 91 | 1009.7 |
| 20260903121406 | 14 | 349 | 22.5 | 32.2 | 0.00 | 0.00 | 0.00 | 91 | 1009.8 |
| 20260903120406 | 14 | 358 | 20.9 | 33.8 | 0.00 | 0.00 | 0.00 | 91 | 1010.0 |
| 20260903115905 | 14 | 358 | 17.7 | 33.8 | 0.00 | 0.00 | 0.00 | 91 | 1010.1 |
| 20260903115407 | 14 | 353 | 14.5 | 25.7 | 0.00 | 0.00 | 0.00 | 91 | 1010.1 |
| 20260903114405 | 14 | 352 | 19.3 | 35.4 | 0.00 | 0.00 | 0.00 | 91 | 1010.3 |
| 20260903112905 | 13 | 348 | 9.7 | 22.5 | 0.00 | 0.00 | 0.00 | 91 | 1010.5 |
| 20260903112406 | 14 | 350 | 12.9 | 32.2 | 0.00 | 0.00 | 0.00 | 91 | 1010.7 |
| 20260903111906 | 14 | 347 | 19.3 | 32.2 | 0.00 | 0.00 | 0.00 | 91 | 1010.8 |
| 20260903111406 | 14 | 345 | 20.9 | 37.0 | 0.00 | 0.00 | 0.00 | 91 | 1010.9 |
| 20260903110906 | 14 | 351 | 22.5 | 38.6 | 0.00 | 0.00 | 0.00 | 91 | 1010.9 |
| 20260903110407 | 14 | 353 | 20.9 | 41.8 | 0.00 | 0.00 | 0.00 | 91 | 1011.0 |
| 20260903104405 | 14 | 339 | 14.5 | 25.7 | 0.00 | 0.00 | 0.00 | 91 | 1011.3 |
| 20260903103905 | 14 | 345 | 9.7 | 27.4 | 0.00 | 0.00 | 0.00 | 91 | 1011.3 |
| 20260903103406 | 14 | 344 | 12.9 | 24.1 | 0.00 | 0.00 | 0.00 | 91 | 1011.4 |
| 20260903102905 | 14 | 335 | 16.1 | 27.4 | 0.00 | 0.00 | 0.00 | 91 | 1011.4 |
| 20260903102406 | 14 | 341 | 9.7 | 25.7 | 0.00 | 0.00 | 0.00 | 91 | 1011.6 |
| 20260903101906 | 14 | 334 | 16.1 | 24.1 | 0.00 | 0.00 | 0.00 | 91 | 1011.6 |
| 20260903101405 | 14 | 346 | 14.5 | 25.7 | 0.00 | 0.00 | 0.00 | 91 | 1011.6 |
| 20260903100906 | 14 | 347 | 11.3 | 24.1 | 0.00 | 0.00 | 0.00 | 91 | 1011.6 |
| 20260903100405 | 14 | 347 | 14.5 | 27.4 | 0.00 | 0.00 | 0.00 | 91 | 1011.7 |
| 20260903095905 | 14 | 341 | 11.3 | 22.5 | 0.00 | 0.00 | 0.00 | 91 | 1011.8 |
| 20260903095405 | 14 | 325 | 11.3 | 20.9 | 0.00 | 0.00 | 0.00 | 91 | 1011.8 |
| 20260903094906 | 14 | 328 | 14.5 | 19.3 | 0.00 | 0.00 | 0.00 | 91 | 1011.8 |
| 20260903094405 | 14 | 329 | 8.0 | 19.3 | 0.00 | 0.00 | 0.00 | 91 | 1011.8 |
| 20260903093905 | 14 | 345 | 9.7 | 19.3 | 0.00 | 0.00 | 0.00 | 91 | 1011.7 |
| 20260903093406 | 14 | 337 | 11.3 | 22.5 | 0.00 | 0.00 | 0.00 | 91 | 1011.7 |
| 20260903092905 | 14 | 344 | 8.0 | 19.3 | 0.00 | 0.00 | 0.00 | 91 | 1011.6 |
| 20260903092406 | 14 | 341 | 9.7 | 19.3 | 0.00 | 0.00 | 0.00 | 91 | 1011.7 |
| 20260903091906 | 14 | 340 | 9.7 | 32.2 | 0.00 | 0.00 | 0.00 | 91 | 1011.7 |
| 20260903091406 | 14 | 353 | 11.3 | 25.7 | 0.00 | 0.00 | 0.00 | 91 | 1011.8 |
| 20260903090905 | 14 | 342 | 11.3 | 25.7 | 0.00 | 0.00 | 0.00 | 91 | 1011.8 |
| 20260903090406 | 14 | 341 | 14.5 | 24.1 | 0.00 | 0.00 | 0.00 | 91 | 1011.7 |
| 20260903085906 | 14 | 350 | 16.1 | 25.7 | 0.00 | 0.00 | 0.00 | 91 | 1011.8 |
| 20260903084906 | 14 | 337 | 14.5 | 22.5 | 0.00 | 0.00 | 0.00 | 90 | 1011.9 |
| 20260903084410 | 14 | 353 | 11.3 | 27.4 | 0.00 | 0.00 | 0.00 | 91 | 1011.9 |
| 20260903083905 | 14 | 343 | 8.0 | 20.9 | 0.00 | 0.00 | 0.00 | 90 | 1011.9 |
| 20260903082910 | 14 | 341 | 9.7 | 24.1 | 0.00 | 0.00 | 0.00 | 90 | 1012.0 |
| 20260903082406 | 14 | 338 | 8.0 | 20.9 | 0.00 | 0.00 | 0.00 | 90 | 1012.1 |
| 20260903081406 | 14 | 329 | 8.0 | 19.3 | 0.00 | 0.00 | 0.00 | 90 | 1012.1 |
| 20260903080905 | 14 | 355 | 4.8 | 20.9 | 0.00 | 0.00 | 0.00 | 90 | 1012.2 |
| 20260903075905 | 14 | 331 | 8.0 | 19.3 | 0.00 | 0.00 | 0.00 | 90 | 1012.2 |
| 20260903075405 | 14 | 349 | 11.3 | 22.5 | 0.00 | 0.00 | 0.00 | 90 | 1012.2 |
| 20260903074906 | 14 | 340 | 9.7 | 20.9 | 0.00 | 0.00 | 0.00 | 90 | 1012.1 |
| 20260903074406 | 14 | 332 | 12.9 | 22.5 | 0.00 | 0.00 | 0.00 | 90 | 1012.2 |
| 20260903073905 | 14 | 352 | 14.5 | 24.1 | 0.00 | 0.00 | 0.00 | 90 | 1012.2 |
| 20260903073405 | 14 | 334 | 16.1 | 25.7 | 0.00 | 0.00 | 0.00 | 90 | 1012.2 |
| 20260903072906 | 14 | 331 | 9.7 | 20.9 | 0.00 | 0.00 | 0.00 | 90 | 1012.2 |
| 20260903072406 | 14 | 329 | 11.3 | 29.0 | 0.00 | 0.00 | 0.00 | 90 | 1012.2 |
| 20260903071905 | 14 | 336 | 12.9 | 25.7 | 0.00 | 0.00 | 0.00 | 90 | 1012.2 |
| 20260903071406 | 14 | 342 | 11.3 | 25.7 | 0.00 | 0.00 | 0.00 | 90 | 1012.2 |
| 20260903070905 | 14 | 333 | 11.3 | 20.9 | 0.00 | 0.00 | 0.00 | 90 | 1012.2 |
| 20260903070405 | 14 | 344 | 6.4 | 19.3 | 0.00 | 0.00 | 0.00 | 90 | 1012.2 |
| 20260903065905 | 14 | 331 | 9.7 | 19.3 | 0.00 | 0.00 | 0.00 | 89 | 1012.2 |
| 20260903065406 | 14 | 330 | 8.0 | 14.5 | 0.00 | 0.00 | 0.00 | 89 | 1012.2 |
| 20260903064906 | 14 | 342 | 8.0 | 14.5 | 0.00 | 0.00 | 0.00 | 89 | 1012.1 |
| 20260903064406 | 13 | 348 | 4.8 | 14.5 | 0.00 | 0.00 | 0.00 | 89 | 1012.1 |
| 20260903063906 | 13 | 352 | 4.8 | 14.5 | 0.00 | 0.00 | 0.00 | 89 | 1012.0 |
| 20260903062905 | 13 | 340 | 4.8 | 14.5 | 0.00 | 0.00 | 0.00 | 89 | 1012.1 |
| 20260903062406 | 13 | 340 | 4.8 | 12.9 | 0.00 | 0.00 | 0.00 | 89 | 1012.1 |
| 20260903060905 | 13 | 322 | 3.2 | 14.5 | 0.00 | 0.00 | 0.00 | 88 | 1012.2 |
| 20260903060405 | 13 | 357 | 4.8 | 14.5 | 0.00 | 0.00 | 0.00 | 88 | 1012.2 |
| 20260903055409 | 13 | 354 | 6.4 | 16.1 | 0.00 | 0.00 | 0.00 | 88 | 1012.3 |
| 20260903054907 | 13 | 348 | 8.0 | 14.5 | 0.00 | 0.00 | 0.00 | 88 | 1012.3 |
| 20260903054406 | 14 | 312 | 8.0 | 19.3 | 0.00 | 0.00 | 0.00 | 88 | 1012.2 |
| 20260903053405 | 14 | 333 | 4.8 | 14.5 | 0.00 | 0.00 | 0.00 | 88 | 1012.3 |
| 20260903052905 | 14 | 350 | 4.8 | 9.7 | 0.00 | 0.00 | 0.00 | 88 | 1012.3 |
| 20260903052405 | 14 | 347 | 4.8 | 12.9 | 0.00 | 0.00 | 0.00 | 87 | 1012.4 |
| 20260903051905 | 14 | 334 | 3.2 | 9.7 | 0.00 | 0.00 | 0.00 | 87 | 1012.4 |
| 20260903051405 | 14 | 334 | 4.8 | 16.1 | 0.00 | 0.00 | 0.00 | 87 | 1012.3 |
| 20260903050905 | 14 | 350 | 8.0 | 14.5 | 0.00 | 0.00 | 0.00 | 87 | 1012.4 |
| 20260903050405 | 14 | 343 | 3.2 | 14.5 | 0.00 | 0.00 | 0.00 | 87 | 1012.4 |
| 20260903045906 | 14 | 305 | 6.4 | 16.1 | 0.00 | 0.00 | 0.00 | 87 | 1012.5 |
| 20260903045405 | 14 | 342 | 6.4 | 19.3 | 0.00 | 0.00 | 0.00 | 87 | 1012.5 |
| 20260903044905 | 14 | 345 | 9.7 | 24.1 | 0.00 | 0.00 | 0.00 | 87 | 1012.6 |
| 20260903044405 | 14 | 326 | 6.4 | 19.3 | 0.00 | 0.00 | 0.00 | 87 | 1012.6 |
| 20260903043906 | 14 | 331 | 8.0 | 19.3 | 0.00 | 0.00 | 0.00 | 87 | 1012.6 |
| 20260903043405 | 14 | 339 | 8.0 | 19.3 | 0.00 | 0.00 | 0.00 | 86 | 1012.6 |
| 20260903042906 | 14 | 350 | 8.0 | 16.1 | 0.00 | 0.00 | 0.00 | 86 | 1012.6 |
| 20260903042405 | 15 | 341 | 4.8 | 16.1 | 0.00 | 0.00 | 0.00 | 86 | 1012.7 |
| 20260903041406 | 15 | 352 | 9.7 | 19.3 | 0.00 | 0.00 | 0.00 | 85 | 1012.6 |
| 20260903040905 | 15 | 336 | 9.7 | 19.3 | 0.00 | 0.00 | 0.00 | 84 | 1012.7 |
| 20260903040406 | 15 | 349 | 8.0 | 19.3 | 0.00 | 0.00 | 0.00 | 84 | 1012.8 |
| 20260903035406 | 15 | 322 | 8.0 | 19.3 | 0.00 | 0.00 | 0.00 | 84 | 1012.8 |
| 20260903034905 | 15 | 325 | 8.0 | 16.1 | 0.00 | 0.00 | 0.00 | 84 | 1012.8 |
| 20260903033905 | 15 | 344 | 12.9 | 19.3 | 0.00 | 0.00 | 0.00 | 84 | 1013.0 |
| 20260903033405 | 15 | 346 | 8.0 | 20.9 | 0.00 | 0.00 | 0.00 | 85 | 1013.0 |
| 20260903032905 | 15 | 333 | 8.0 | 20.9 | 0.00 | 0.00 | 0.00 | 86 | 1013.0 |
| 20260903032405 | 15 | 350 | 9.7 | 20.9 | 0.00 | 0.00 | 0.00 | 85 | 1013.1 |
| 20260903031905 | 15 | 342 | 11.3 | 20.9 | 0.00 | 0.00 | 0.00 | 86 | 1013.1 |
| 20260903031405 | 15 | 332 | 8.0 | 20.9 | 0.00 | 0.00 | 0.00 | 85 | 1013.1 |
| 20260903030906 | 15 | 352 | 8.0 | 19.3 | 0.00 | 0.00 | 0.00 | 85 | 1013.2 |
| 20260903030405 | 15 | 338 | 8.0 | 16.1 | 0.00 | 0.00 | 0.00 | 85 | 1013.2 |
| 20260903025906 | 15 | 331 | 4.8 | 12.9 | 0.00 | 0.00 | 0.00 | 85 | 1013.2 |
| 20260903024905 | 15 | 340 | 9.7 | 19.3 | 0.00 | 0.00 | 0.00 | 83 | 1013.3 |
| 20260903024406 | 15 | 345 | 6.4 | 12.9 | 0.00 | 0.00 | 0.00 | 83 | 1013.4 |
| 20260903023905 | 16 | 340 | 6.4 | 16.1 | 0.00 | 0.00 | 0.00 | 82 | 1013.4 |
| 20260903023405 | 16 | 348 | 6.4 | 19.3 | 0.00 | 0.00 | 0.00 | 81 | 1013.4 |
| 20260903022906 | 17 | 341 | 9.7 | 20.9 | 0.00 | 0.00 | 0.00 | 81 | 1013.5 |
| 20260903022405 | 17 | 354 | 9.7 | 25.7 | 0.00 | 0.00 | 0.00 | 81 | 1013.5 |
| 20260903021405 | 17 | 314 | 8.0 | 16.1 | 0.00 | 0.00 | 0.00 | 82 | 1013.7 |
| 20260903020905 | 17 | 339 | 8.0 | 19.3 | 0.00 | 0.00 | 0.00 | 83 | 1013.8 |
| 20260903015905 | 15 | 351 | 6.4 | 19.3 | 0.00 | 0.00 | 0.00 | 85 | 1013.9 |
| 20260903015405 | 15 | 339 | 11.3 | 20.9 | 0.00 | 0.00 | 0.00 | 84 | 1014.0 |
| 20260903014406 | 15 | 345 | 6.4 | 12.9 | 0.00 | 0.00 | 0.00 | 83 | 1014.0 |
| 20260903013905 | 16 | 338 | 9.7 | 16.1 | 0.00 | 0.00 | 0.00 | 82 | 1014.0 |
| 20260903013405 | 16 | 345 | 8.0 | 16.1 | 0.00 | 0.00 | 0.00 | 82 | 1014.0 |
| 20260903012405 | 16 | 341 | 8.0 | 19.3 | 0.00 | 0.00 | 0.00 | 83 | 1014.1 |
| 20260903011905 | 15 | 352 | 6.4 | 16.1 | 0.00 | 0.00 | 0.00 | 83 | 1014.2 |
| 20260903011405 | 15 | 334 | 9.7 | 20.9 | 0.00 | 0.00 | 0.00 | 83 | 1014.3 |
| 20260903010405 | 15 | 332 | 6.4 | 19.3 | 0.00 | 0.00 | 0.00 | 82 | 1014.5 |
| 20260903005905 | 15 | 330 | 8.0 | 19.3 | 0.00 | 0.00 | 0.00 | 82 | 1014.5 |
| 20260903005406 | 15 | 335 | 6.4 | 16.1 | 0.00 | 0.00 | 0.00 | 83 | 1014.5 |
| 20260903004905 | 15 | 349 | 9.7 | 19.3 | 0.00 | 0.00 | 0.00 | 82 | 1014.6 |
| 20260903003905 | 16 | 315 | 9.7 | 20.9 | 0.00 | 0.00 | 0.00 | 82 | 1014.9 |
| 20260903002905 | 16 | 342 | 11.3 | 27.4 | 0.00 | 0.00 | 0.00 | 82 | 1015.0 |
| 20260903002406 | 16 | 330 | 14.5 | 24.1 | 0.00 | 0.00 | 0.00 | 82 | 1015.0 |
| 20260903001905 | 16 | 350 | 11.3 | 24.1 | 0.00 | 0.00 | 0.00 | 82 | 1015.1 |
| 20260903001405 | 16 | 351 | 9.7 | 25.7 | 0.00 | 0.00 | 0.00 | 82 | 1015.2 |
| 20260903000905 | 16 | 352 | 11.3 | 22.5 | 0.00 | 0.00 | 0.00 | 82 | 1015.3 |
| 20260903000406 | 16 | 341 | 11.3 | 22.5 | 0.00 | 0.00 | 0.00 | 83 | 1015.3 |
| 20260902235905 | 16 | 343 | 14.5 | 24.1 | 0.00 | 0.00 | 0.00 | 83 | 1015.3 |
| 20260902235405 | 15 | 340 | 11.3 | 27.4 | 0.00 | 0.00 | 0.00 | 83 | 1015.3 |
| 20260902234905 | 15 | 341 | 11.3 | 20.9 | 0.00 | 0.00 | 0.00 | 84 | 1015.3 |
| 20260902234405 | 15 | 336 | 11.3 | 27.4 | 0.00 | 0.00 | 0.00 | 84 | 1015.3 |
| 20260902233905 | 15 | 347 | 9.7 | 22.5 | 0.00 | 0.00 | 0.00 | 84 | 1015.4 |
| 20260902233405 | 15 | 337 | 9.7 | 22.5 | 0.00 | 0.00 | 0.00 | 85 | 1015.4 |
| 20260902232905 | 15 | 328 | 9.7 | 24.1 | 0.00 | 0.00 | 0.00 | 85 | 1015.4 |
| 20260902232405 | 15 | 345 | 8.0 | 20.9 | 0.00 | 0.00 | 0.00 | 85 | 1015.5 |
| 20260902231905 | 15 | 323 | 9.7 | 20.9 | 0.00 | 0.00 | 0.00 | 85 | 1015.6 |
| 20260902231406 | 15 | 326 | 8.0 | 22.5 | 0.00 | 0.00 | 0.00 | 85 | 1015.7 |
| 20260902230905 | 15 | 341 | 8.0 | 22.5 | 0.00 | 0.00 | 0.00 | 85 | 1015.7 |
| 20260902230405 | 15 | 350 | 9.7 | 22.5 | 0.00 | 0.00 | 0.00 | 85 | 1015.8 |
| 20260902225405 | 14 | 314 | 11.3 | 24.1 | 0.00 | 0.00 | 0.00 | 85 | 1015.7 |
| 20260902224910 | 15 | 321 | 11.3 | 22.5 | 0.00 | 0.00 | 0.00 | 86 | 1015.6 |
| 20260902224405 | 14 | 337 | 8.0 | 19.3 | 0.00 | 0.00 | 0.00 | 86 | 1015.7 |
| 20260902223905 | 14 | 340 | 8.0 | 19.3 | 0.00 | 0.00 | 0.00 | 86 | 1015.7 |
| 20260902223405 | 14 | 347 | 8.0 | 19.3 | 0.00 | 0.00 | 0.00 | 85 | 1015.7 |
| 20260902222906 | 14 | 326 | 8.0 | 22.5 | 0.00 | 0.00 | 0.00 | 85 | 1015.6 |
| 20260902221905 | 15 | 329 | 9.7 | 20.9 | 0.00 | 0.00 | 0.00 | 85 | 1015.5 |
| 20260902221405 | 15 | 320 | 4.8 | 20.9 | 0.00 | 0.00 | 0.00 | 85 | 1015.6 |
| 20260902220906 | 14 | 336 | 4.8 | 22.5 | 0.00 | 0.00 | 0.00 | 85 | 1015.7 |
| 20260902220405 | 15 | 338 | 9.7 | 19.3 | 0.00 | 0.00 | 0.00 | 85 | 1015.6 |
| 20260902215905 | 15 | 342 | 8.0 | 20.9 | 0.00 | 0.00 | 0.00 | 85 | 1015.7 |
| 20260902215406 | 15 | 352 | 9.7 | 22.5 | 0.00 | 0.00 | 0.00 | 85 | 1015.6 |
| 20260902214906 | 14 | 334 | 9.7 | 20.9 | 0.00 | 0.00 | 0.00 | 85 | 1015.6 |
| 20260902214406 | 14 | 325 | 11.3 | 20.9 | 0.00 | 0.00 | 0.00 | 86 | 1015.6 |
| 20260902213907 | 14 | 305 | 8.0 | 19.3 | 0.00 | 0.00 | 0.00 | 86 | 1015.6 |
| 20260902212905 | 14 | 325 | 6.4 | 20.9 | 0.00 | 0.00 | 0.00 | 86 | 1015.8 |
| 20260902212406 | 14 | 338 | 8.0 | 19.3 | 0.00 | 0.00 | 0.00 | 87 | 1015.8 |
| 20260902211905 | 14 | 331 | 11.3 | 25.7 | 0.00 | 0.00 | 0.00 | 87 | 1015.9 |
| 20260902211406 | 13 | 340 | 11.3 | 22.5 | 0.00 | 0.00 | 0.00 | 87 | 1015.9 |
| 20260902205405 | 13 | 344 | 8.0 | 22.5 | 0.00 | 0.00 | 0.00 | 87 | 1015.9 |
| 20260902203905 | 13 | 349 | 9.7 | 25.7 | 0.00 | 0.00 | 0.00 | 87 | 1015.9 |
| 20260902203406 | 13 | 310 | 11.3 | 27.4 | 0.00 | 0.00 | 0.00 | 87 | 1015.9 |
| 20260902202905 | 13 | 335 | 11.3 | 25.7 | 0.00 | 0.00 | 0.00 | 87 | 1015.8 |
| 20260902202405 | 13 | 335 | 11.3 | 27.4 | 0.00 | 0.00 | 0.00 | 87 | 1015.8 |
| 20260902201906 | 13 | 341 | 11.3 | 20.9 | 0.00 | 0.00 | 0.00 | 87 | 1015.6 |
| 20260902200905 | 13 | 357 | 12.9 | 25.7 | 0.00 | 0.00 | 0.00 | 87 | 1015.6 |
| 20260902200405 | 13 | 347 | 11.3 | 33.8 | 0.00 | 0.00 | 0.00 | 87 | 1015.7 |
| 20260902195906 | 13 | 329 | 14.5 | 33.8 | 0.00 | 0.00 | 0.00 | 87 | 1015.6 |
| 20260902195406 | 13 | 341 | 14.5 | 25.7 | 0.00 | 0.00 | 0.00 | 87 | 1015.6 |
| 20260902194905 | 13 | 345 | 14.5 | 25.7 | 0.00 | 0.00 | 0.00 | 87 | 1015.6 |
| 20260902194405 | 13 | 336 | 11.3 | 27.4 | 0.00 | 0.00 | 0.00 | 87 | 1015.6 |
| 20260902193906 | 13 | 324 | 16.1 | 37.0 | 0.00 | 0.00 | 0.00 | 87 | 1015.7 |
| 20260902193406 | 13 | 334 | 14.5 | 27.4 | 0.00 | 0.00 | 0.00 | 87 | 1015.6 |
| 20260902192905 | 13 | 338 | 16.1 | 29.0 | 0.00 | 0.00 | 0.00 | 87 | 1015.6 |
| 20260902192405 | 13 | 349 | 14.5 | 32.2 | 0.00 | 0.00 | 0.00 | 87 | 1015.6 |
| 20260902191906 | 13 | 343 | 11.3 | 27.4 | 0.00 | 0.00 | 0.00 | 87 | 1015.5 |
| 20260902191405 | 13 | 314 | 12.9 | 27.4 | 0.00 | 0.00 | 0.00 | 87 | 1015.4 |
| 20260902190405 | 13 | 345 | 12.9 | 32.2 | 0.00 | 0.00 | 0.00 | 87 | 1015.4 |
| 20260902185905 | 13 | 336 | 14.5 | 32.2 | 0.00 | 0.00 | 0.00 | 87 | 1015.3 |
| 20260902185406 | 13 | 315 | 14.5 | 32.2 | 0.00 | 0.00 | 0.00 | 87 | 1015.3 |
| 20260902184906 | 13 | 348 | 14.5 | 33.8 | 0.00 | 0.00 | 0.00 | 87 | 1015.1 |
| 20260902184405 | 13 | 347 | 14.5 | 32.2 | 0.00 | 0.00 | 0.00 | 87 | 1015.1 |